Hourly Weather Roundup
Issued by NWS Central Illinois

Home | Current Version | Previous Version | Text Only | Print | Product List | Glossary On
Versions: 1 2 3 4 5 6 7 8 9 10 11 12 13 14 15 16 17 18 19 20 21 22 23 24 25 26 27 28 29 30 31 32 33 34 35 36 37 38 39 40 41 42 43 44 45 46 47 48 49 50
000
NZUS43 KILX 300610
HWRILX

AREA WEATHER ROUNDUP
NATIONAL WEATHER SERVICE, LINCOLN IL
100 AM CDT THU OCT 30 2014


CITY           SKY/WX    TMP DP  RH WIND       PRES   REMARKS
BLOOMINGTON    CLEAR     36  33  88 S3        30.16S
6HR MIN TEMP:  35; 6HR MAX TEMP:  45;

CHAMPAIGN      CLEAR     35  31  85 CALM      30.16S
6HR MIN TEMP:  34; 6HR MAX TEMP:  46;

DECATUR        CLEAR     37  33  85 CALM      30.17R
6HR MIN TEMP:  36; 6HR MAX TEMP:  48;

FLORA          CLEAR     37  37  98 CALM      30.18S
6HR MIN TEMP:  37; 6HR MAX TEMP:  49;

GALESBURG      CLEAR     31  30  96 CALM      30.15S
JACKSONVILLE   CLEAR     39  35  87 CALM      30.16S
6HR MIN TEMP:  38; 6HR MAX TEMP:  48;

LACON          CLEAR     32  29  88 CALM      30.15R
6HR MIN TEMP:  31; 6HR MAX TEMP:  40;

LAWRENCEVILLE  CLEAR     39  31  72 CALM      30.17S
6HR MIN TEMP:  38; 6HR MAX TEMP:  51;

LITCHFIELD     CLEAR     37  35  90 CALM      30.16F
$$


CITY           SKY/WX    TMP DP  RH WIND       PRES   REMARKS
LINCOLN        CLEAR     35  32  91 CALM      30.16S
6HR MIN TEMP:  35; 6HR MAX TEMP:  46;

MACOMB         CLEAR     31  30  94 CALM      30.18R
MATTOON        CLEAR     36  33  89 CALM      30.16R
6HR MIN TEMP:  36; 6HR MAX TEMP:  46;

MT CARMEL AP   CLEAR     39  37  93 CALM      30.16F
OLNEY-NOBLE AP CLEAR     37  36  93 CALM      30.18S
PARIS          CLEAR     33  32  96 CALM      30.17R
6HR MIN TEMP:  33; 6HR MAX TEMP:  47;

PEORIA         CLEAR     37  31  78 CALM      30.15S
6HR MIN TEMP:  36; 6HR MAX TEMP:  46;

PONTIAC        CLEAR     31  31  97 CALM      30.16S
RANTOUL        CLEAR     36  33  89 CALM      30.15F
6HR MIN TEMP:  36; 6HR MAX TEMP:  48;

ROBINSON       CLEAR     37  37  97 CALM      30.18S
6HR MIN TEMP:  37; 6HR MAX TEMP:  53;

SPRINGFIELD    CLEAR     35  32  88 CALM      30.17S
6HR MIN TEMP:  35; 6HR MAX TEMP:  47;

TAYLORVILLE    CLEAR     36  34  93 SE3       30.16F
$$

...REGIONAL REPORTS...


CITY           SKY/WX    TMP DP  RH WIND       PRES   REMARKS
CHICAGO O`HARE CLEAR     37  31  78 W5        30.13S WCI  33
KANKAKEE       CLEAR     34  32  93 SW5       30.15F WCI  30
MOLINE         CLEAR     32  29  88 CALM      30.15R
MOUNT VERNON   CLEAR     36  30  80 CALM      30.17S
PITTSFIELD     CLEAR     35  33  92 CALM      30.16F
QUINCY         CLEAR     39  32  76 SE6       30.15S WCI  35
ROCKFORD       MOCLDY    33  29  85 CALM      30.15S
$$


CITY           SKY/WX    TMP DP  RH WIND       PRES   REMARKS
BURLINGTON     CLEAR     36  33  89 CALM      30.14F
CEDAR RAPIDS   PTCLDY    33  31  92 SE3       30.12F
DES MOINES     MOCLDY    42  33  70 S6        30.11S
KIRKSVILLE     CLEAR     38  34  85 SE3       30.13F
OTTUMWA        CLEAR     34  31  88 S5        30.13R WCI  30
ST LOUIS       CLEAR     43  37  79 CALM      30.17S
$$


CITY           SKY/WX    TMP DP  RH WIND       PRES   REMARKS
TERRE HAUTE    CLEAR     37  33  85 CALM      30.16S
EVANSVILLE     CLEAR     44  36  73 N6        30.17S
INDIANAPOLIS   PTCLDY    42  31  64 CALM      30.13F
LAFAYETTE      PTCLDY    39  35  86 CALM      30.15S
MADISON        MOCLDY    33  30  88 CALM      30.12F
MILWAUKEE      CLEAR     38  31  76 CALM      30.13R
$$





USA.gov is the U.S. government's official web portal to all federal, state and local government web resources and services.